Weather History for Moffett NAS, CA

Change the Weather History Date:

Tuesday, February 27, 2007

  Actual Average Record
Temperature  
Mean Temperature 46 °F 55 °F  
Max Temperature 53 °F 63 °F 77 °F (1992)
Min Temperature 39 °F 47 °F 30 °F (1962)
Degree Days  
Heating Degree Days 19    
Month to date heating degree days  
Since 1 July heating degree days  
Cooling Degree Days 0    
Month to date cooling degree days  
Year to date cooling degree days  
Moisture  
Dew Point 37 °F    
Average Humidity 78    
Maximum Humidity 89    
Minimum Humidity 48    
Precipitation  
Precipitation 0.20 in 0.11 in 1.29 in (1955)
Month to date precipitation 2.96  
Year to date precipitation 5.71  
Since 1 July precipitation 10.76  
Sea Level Pressure  
Sea Level Pressure 29.98 in    
Wind  
Wind Speed 4 mph (South)    
Max Wind Speed 14 mph    
Max Gust Speed 22 mph    
Visibility 9 miles    
Events Rain    
T = Trace of Precipitation, MM = Missing Value Source: NWS Daily Summary

Daily Weather History Graph

Daily Weather History Graph

Search for Another Location

Airport:

Trip Planner

Search our weather history database for the weather conditions in past years. The results will help you decide how hot, cold, wet, or windy it might be!

Date:

Astronomy

Feb. 27, 2007 Rise Set
Actual Time 6:42 AM PST 5:59 PM PST
Civil Twilight 6:16 AM PST 6:26 PM PST
Nautical Twilight 5:45 AM PST 6:56 PM PST
Astronomical Twilight 5:15 AM PST 7:26 PM PST
Moon 1:54 PM PST (2/27) 4:30 AM PST (2/27)
Length of Visible Light 12h 10m
Length of Day
11h 17m
Waxing Gibbous, 84% of the Moon is Illuminated
Feb 27
Waxing Gibbous
Mar 3
Full
Mar 11
Last Quarter
Mar 18
New
Mar 25
First Quarter

Hourly Weather History & Observations

Time (PST) Temp. Windchill Dew Point Humidity Pressure Visibility Wind Dir Wind Speed Gust Speed Precip Events Conditions
12:56 AM 43.0 °F - 39.9 °F 89% 29.94 in 10.0 mi Calm Calm - N/A   Clear
1:56 AM 44.1 °F - 39.9 °F 85% 29.96 in 10.0 mi Calm Calm - 0.00 in   Mostly Cloudy
2:56 AM 43.0 °F 41.3 °F 37.9 °F 82% 29.96 in 7.0 mi Variable 3.5 mph - 0.00 in Rain Light Rain
3:56 AM 43.0 °F 41.3 °F 37.0 °F 80% 29.98 in 8.0 mi Variable 3.5 mph - 0.01 in Rain Light Rain
4:13 AM 42.8 °F - 37.4 °F 81% 29.98 in 8.0 mi Calm Calm - 0.02 in Rain Light Rain
4:56 AM 41.0 °F 38.0 °F 37.0 °F 86% 29.99 in 10.0 mi SE 4.6 mph - 0.02 in   Scattered Clouds
5:56 AM 39.9 °F 35.8 °F 37.0 °F 89% 29.99 in 10.0 mi SE 5.8 mph - N/A   Scattered Clouds
6:56 AM 39.9 °F 35.8 °F 37.0 °F 89% 30.01 in 10.0 mi SSE 5.8 mph - N/A   Clear
7:56 AM 42.1 °F 38.4 °F 37.9 °F 85% 30.04 in 10.0 mi SE 5.8 mph - N/A   Scattered Clouds
8:56 AM 46.0 °F 41.9 °F 39.0 °F 76% 30.04 in 10.0 mi SE 8.1 mph - N/A   Clear
9:56 AM 48.9 °F - 37.0 °F 64% 30.04 in 10.0 mi SSE 4.6 mph - N/A   Clear
10:56 AM 51.1 °F - 33.1 °F 50% 30.04 in 10.0 mi West 8.1 mph - N/A   Scattered Clouds
11:56 AM 53.1 °F - 34.0 °F 48% 30.01 in 10.0 mi South 11.5 mph 16.1 mph N/A   Mostly Cloudy
12:56 PM 50.0 °F - 34.0 °F 54% 30.01 in 10.0 mi West 13.8 mph 21.9 mph 0.01 in Rain Light Rain
1:56 PM 46.9 °F - 39.0 °F 74% 29.98 in 10.0 mi West 5.8 mph - 0.00 in Rain Light Rain
2:56 PM 48.0 °F - 37.0 °F 66% 29.96 in 10.0 mi SSW 11.5 mph - 0.02 in   Partly Cloudy
3:56 PM 48.0 °F - 37.9 °F 68% 29.93 in 10.0 mi South 10.4 mph - 0.00 in Rain Light Rain
4:56 PM 44.1 °F 38.1 °F 37.9 °F 79% 29.95 in 3.0 mi WSW 11.5 mph - 0.06 in Rain Rain
5:18 PM 44.6 °F 41.4 °F 39.2 °F 81% 29.93 in 5.0 mi SSW 5.8 mph - 0.01 in   Haze
5:56 PM 44.1 °F 42.5 °F 39.0 °F 82% 29.94 in 5.0 mi SE 3.5 mph - 0.01 in   Haze
6:56 PM 44.1 °F - 37.9 °F 79% 29.94 in 10.0 mi Calm Calm - 0.02 in   Partly Cloudy
7:56 PM 42.1 °F 38.4 °F 37.0 °F 82% 29.95 in 3.0 mi Variable 5.8 mph 20.7 mph 0.04 in Rain Rain
8:08 PM 42.8 °F 41.1 °F 37.4 °F 81% 29.95 in 10.0 mi WSW 3.5 mph - 0.01 in Rain Light Rain
8:56 PM 41.0 °F 38.0 °F 37.0 °F 86% 29.95 in 10.0 mi South 4.6 mph - 0.01 in   Scattered Clouds
9:56 PM 41.0 °F 37.1 °F 37.0 °F 86% 29.95 in 10.0 mi SSE 5.8 mph - N/A   Mostly Cloudy
10:56 PM 41.0 °F - 37.0 °F 86% 29.96 in 10.0 mi Calm Calm - 0.00 in   Mostly Cloudy
11:56 PM 41.0 °F 39.0 °F 37.0 °F 86% 29.97 in 10.0 mi SE 3.5 mph - N/A   Mostly Cloudy